ONEWEB-0263, 48981

Orbit data source: Space-Track

ONEWEB-0263, 48981 is a payload satellite owned by One Web (NAA) (UK) in LEO that was launched on Thu, 01 Jul 2021 UTC via a SOYUZ-2-1B launch vehicle from the Vostochny Cosmodrome (VOSTO). Payload-class satellites include a variety of spacecraft equipped with specific instruments for various scientific and technological missions. These include communications satellites like Starlink; space stations such as the ISS; scientific satellites like the Hubble; Earth observation satellites from companies like Planet Labs, Umbra, and HawkEye 360; GPS; miniature CubeSats for education and research; and military/defense satellites.

Loading next visibility...
Identifier
48981, 2021-060Q
Orbit
LEO
Country
Flag of UKUK
Related business
Manufacturer
One Web
Mission
Operational Commercial Communications
Bus & Motor
ARROW, Unknown motor
Mass
148 kg wet, ~140 kg dry
Launch date (UTC)
2021-07-01 (4 years ago)
Launch vehicle
SOYUZ-2-1B
Launch site
Vostochny Cosmodrome (VOSTO)
Object type
Payload
Rocket body
Debris
Shape & HBR
Trap Box + 2 Pan, 6.7 m
Radar Cross Section
3.464 m², Large (>1 m²)

Expand to show TLE details & history
Last TLE update: 10 hours ago

TLE from 10 hours ago
0 ONEWEB-0263
1 48981U 21060Q   25349.76642265  .00000081  00000-0  17950-3 0  9994
2 48981  87.9042 265.3061 0001994  65.4128 294.7211 13.16596631215458
Epoch: 2025-12-15T18:23Z
TLE epoch observation values (Epoch: 2025-12-15T18:23:38.916Z)
Latitude
-0°
Longitude
-95.26633°
Altitude
1,200.013 km
Speed
7.254 km/s
True Right ascension
17h 41m 13s
True Declination
0° 00' 00"
Sunlit
Object was in daylight at epoch
Visualization orbit readout
Latitude
Unknown
Longitude
Unknown
Altitude
Unknown
Speed
Unknown
Apparent Right ascension
Unknown
Apparent Declination
Unknown
Sunlit
N/A
Visualization observer readout
Local Sidereal Time
03:06:51
Azimuth
Unknown
Elevation
Unknown
Doppler factor
Unknown
Orbital elements
Apogee altitude
1,196.368 km
Perigee altitude
1,193.348 km
Semi-major axis
7,572.995 km
Eccentricity
0.0002
Inclination
87.9042°
RAAN
265.3061°
Arg. of periapsis
65.4128°
True anomaly
294.70034°
Mean anomaly
294.7211°
Eccentric anomaly
294.71072°
Mean motion
3.29338 °/min
Orbital period
109.31 mins
BSTAR
0.0001795
Loading maneuver chart data...
Computing Atmospheric mass density...
Loading historical data...
Loading historical data...
Loading historical data...
Loading historical data...
Loading historical data...
Loading historical data...
Loading historical data...

Documentation

Showing up to 5 results
|